Location: Kelowna
(49.8880°N, 119.4960°W)
Time: 15:30:59
(UTC-07:00)

AO-27 - Pass Details

Date: 10 August 2024
Orbit: 783 x 796 km, 98.8° (Epoch: 14 September)

Event Time Altitude Azimuth Distance (km) Brightness Sun altitude
Exits shadow 21:03:49 - 155° (SSE) 3,003 10.1 -6.5°
Reaches altitude 10° 21:05:26 10° 153° (SSE) 2,356 9.6 -6.7°
Maximum altitude 21:10:36 70° 71° (ENE) 849 7.7 -7.4°
Drops below altitude 10° 21:15:50 10° 349° (N) 2,378 10.9 -8.1°
Sets 21:18:11 0° 347° (NNW) 3,313 11.7 -8.4°
